Other Surface Observations
Issued by NWS Tucson, AZ

Home | Current Version | Previous Version | Text Only | Print | Product List | Glossary On
Versions: 1 2 3 4 5 6 7 8 9 10 11 12 13 14 15 16 17 18 19 20 21 22 23 24 25 26 27 28 29 30 31 32 33 34 35 36 37 38 39 40 41 42 43 44 45 46 47 48 49 50
000
SXUS55 KTWC 192215
OSOTWC

WEATHER ROUNDUP FOR SOUTHEAST ARIZONA
NATIONAL WEATHER SERVICE TUCSON AZ
315 PM MST FRI DEC 19 2014

AZZ504>506-514-192315-
LOCATION       SKY/WX    TMP DP  RH WIND       PRES   REMARKS
TUCSON         SUNNY     60  37  42 N3        30.13F
DAVIS-MONTHAN  SUNNY     58  38  47 N3        30.11F
CHILDRENS PARK N/A       58  36  44 W2                PIMA CO DEQ
ALVERNON/22ND  N/A      N/A N/A N/A N/A               PIMA CO DEQ
CHERRY/GLENN   N/A      N/A N/A N/A N/A               PIMA CO DEQ
TANGERINE      N/A       58 N/A N/A SW5               PIMA CO DEQ
CONTL RANCH    N/A       59  40  49 S1                PIMA CO DEQ
GRANT/1ST      N/A       58  37  45 SW2               PIMA CO DEQ
CRAYCROFT/22ND N/A      N/A N/A N/A N/A               PIMA CO DEQ
GOLFLINKS/KOLB N/A       57  39  50 SW2               PIMA CO DEQ
AJO/12TH       N/A       58  38  48 SE4               PIMA CO DEQ
SAGUARO EAST   N/A      N/A N/A N/A N/A               PIMA CO DEQ
FAIRGROUNDS    N/A       58 N/A N/A E6                PIMA CO DEQ
SAGUARO        N/A       62  38  41 SW4               *SABINO CYN
SAN CARLOS     N/A       53  40  62 S6G10             *SAN CARLOS
GREEN VALLEY   N/A       58  36  44 NE6               PIMA CO DEQ
HORSE CAMP CYN N/A       51  38  60 E6G12             *ARAVAIPA CYN
RINCON MTNS    N/A       44  35  71 W2                *NR MANNING CAMP
$$

AZZ509>511-192315-
LOCATION       SKY/WX    TMP DP  RH WIND       PRES   REMARKS
SAFFORD        SUNNY     49  38  65 VRB3      30.16F
STRAY HORSE    N/A       41  28  59 SW4               *
TRAIL CABIN    N/A       47  24  40 SE3               *N OF GRANVILLE
BLACK HILLS    N/A       51  38  61 S2                *N OF FT THOMAS
DRY LAKE       N/A       45  27  49 NE3               *NATANES MTNS
NOON CREEK     N/A       48  30  50 E5                *PINALENO MTNS
COLUMBINE      N/A       46  38  74 CALM              *PINALENO MTNS
GUTHRIE        N/A       43  27  52 E3                *SW OF GUTHRIE
$$

AZZ502-503-513-192315-
LOCATION       SKY/WX    TMP DP  RH WIND       PRES   REMARKS
NOGALES        SUNNY     58  34  40 W8        30.10F
SELLS          N/A       60  37  42 NE10G15           *
SASABE         N/A       58  38  48 NE6G14            *ALTAR VLY
HOPKINS        N/A       49  37  62 SE5G11            *SANTA RITA MTNS
CARR CYN       N/A       46  31  55 S2                *W OF HEREFORD
$$

AZZ507-508-512-192315-
LOCATION       SKY/WX    TMP DP  RH WIND       PRES   REMARKS
SIERRA VISTA   MOSUNNY   52  28  40 CALM      30.14F
DOUGLAS        SUNNY     56  33  42 VRB6      30.13F
EMPIRE MTNS    N/A       54  29  38 N6G12             *LAS CIENEGAS NCA
MULESHOE RANCH N/A       54  31  41 N4G10             *PRESERVE
HEADQUARTERS   N/A       52  32  47 E5G11             *CHIRICAHUA MTNS
$$

.............................NOTES.............................
THIS IS AN AUTOMATED COLLECTIVE WITH MINIMAL QUALITY CONTROL.
PIMA CO DEQ SITES HAVE NONSTANDARD WIND SENSOR HEIGHTS.
PIMA CO DEQ SITES DO NOT REPORT WIND GUSTS.
* INDICATES WIND SENSORS LOCATED AT 20 FEET INSTEAD OF 33 FEET.
..............................KEY..............................
SKY/WX - SKY CONDITION/WEATHER
TMP    - TEMPERATURE IN FAHRENHEIT
DP     - DEWPOINT IN FAHRENHEIT
RH     - RELATIVE HUMIDITY IN PERCENT
WIND   - DIRECTION AND SPEED IN MILES PER HOUR (MPH)
VRB    - VARIABLE WIND DIRECTION
PRES   - MEAN SEA LEVEL PRESSURE IN INCHES OF MERCURY
         F - FALLING PRESSURE   R - RISING PRESSURE
         S - STEADY PRESSURE
VSB    - VISIBILITY IN MILES
HX     - HEAT INDEX IN FAHRENHEIT
WCI    - WIND CHILL INDEX IN FAHRENHEIT
N/A    - NOT AVAILABLE
AFB    - AIR FORCE BASE
         DAVIS-MONTHAN IS DAVIS-MONTHAN AIR FORCE BASE
CYN    - CANYON
MTNS   - MOUNTAINS
NCA    - NATIONAL CONSERVATION AREA
NR     - NEAR
VLY    - VALLEY
CONTL  - CONTINENTAL
PIMA CO DEQ - PIMA COUNTY DEPT OF ENVIRONMENTAL QUALITY



USA.gov is the U.S. government's official web portal to all federal, state and local government web resources and services.